Location: Catstown
(52.4386°N, 7.2633°W)
Time: 06:10:12
(UTC+00:00)

Sich 1 Rocket - Pass Details

Date: 18 September 2020
Orbit: 617 x 652 km, 82.5° (Epoch: 18 October)

Event Time Altitude Azimuth Distance (km) Brightness Sun altitude
Rises 19:21:32 0° 171° (S) 2,920 6.8 -7.7°
Reaches altitude 10° 19:23:49 10° 165° (SSE) 2,023 5.9 -8.0°
Maximum altitude 19:28:05 45° 93° (E) 878 3.9 -8.7°
Drops below altitude 10° 19:32:26 10° 21° (NNE) 2,058 6.2 -9.3°
Sets 19:34:47 0° 16° (NNE) 2,978 7.1 -9.7°
